Year,Month,Day,Hour,Minute,Value (Times are PST for temperature in C)
2016,03,18,08,27,8.60
2016,03,18,08,28,8.60
2016,03,18,08,29,8.70
2016,03,18,08,30,8.70
2016,03,18,08,31,8.70
2016,03,18,08,32,8.70
2016,03,18,08,33,8.80
2016,03,18,08,34,8.80
2016,03,18,08,35,8.90
2016,03,18,08,36,8.90
2016,03,18,08,37,8.90
2016,03,18,08,38,9.00
2016,03,18,08,39,9.00
2016,03,18,08,40,9.00
2016,03,18,08,41,9.10
2016,03,18,08,42,9.10
2016,03,18,08,43,9.10
2016,03,18,08,44,9.20
2016,03,18,08,45,9.20
2016,03,18,08,46,9.20
2016,03,18,08,47,9.20
2016,03,18,08,48,9.20
2016,03,18,08,49,9.20
2016,03,18,08,50,9.20
2016,03,18,08,51,9.20
2016,03,18,08,52,9.20
2016,03,18,08,53,9.30
2016,03,18,08,54,9.30
2016,03,18,08,55,9.30
2016,03,18,08,56,9.30
2016,03,18,08,57,9.40
2016,03,18,08,58,9.40
2016,03,18,08,59,9.40
2016,03,18,09,00,9.50
2016,03,18,09,01,9.50
2016,03,18,09,02,9.50
2016,03,18,09,03,9.50
2016,03,18,09,04,9.60
2016,03,18,09,05,9.60
2016,03,18,09,06,9.60
2016,03,18,09,07,9.60
2016,03,18,09,08,9.60
2016,03,18,09,09,9.60
2016,03,18,09,10,9.60
2016,03,18,09,11,9.60
2016,03,18,09,12,9.60
2016,03,18,09,13,9.70
2016,03,18,09,14,9.70
2016,03,18,09,15,9.70
2016,03,18,09,16,9.70
2016,03,18,09,17,9.70
2016,03,18,09,18,9.70
2016,03,18,09,19,9.80
2016,03,18,09,20,9.80
2016,03,18,09,21,9.90
2016,03,18,09,22,9.90
2016,03,18,09,23,9.90
2016,03,18,09,24,9.90
2016,03,18,09,25,9.90
2016,03,18,09,26,9.90
2016,03,18,09,27,9.90
2016,03,18,09,28,9.90
2016,03,18,09,29,10.10
2016,03,18,09,30,10.00
2016,03,18,09,31,10.10
2016,03,18,09,32,10.10
2016,03,18,09,33,10.00
2016,03,18,09,34,9.90
2016,03,18,09,35,9.90
2016,03,18,09,36,10.00
2016,03,18,09,37,9.90
2016,03,18,09,38,10.00
2016,03,18,09,39,10.10
2016,03,18,09,40,10.10
2016,03,18,09,41,10.00
2016,03,18,09,42,9.90
2016,03,18,09,43,9.90
2016,03,18,09,44,9.90
2016,03,18,09,45,9.90
2016,03,18,09,46,9.90
2016,03,18,09,47,9.90
2016,03,18,09,48,9.90
2016,03,18,09,49,9.90
2016,03,18,09,50,9.90
2016,03,18,09,51,9.90
2016,03,18,09,52,10.00
2016,03,18,09,53,10.10
2016,03,18,09,54,10.10
2016,03,18,09,55,10.10
2016,03,18,09,56,10.10
2016,03,18,09,57,10.10
2016,03,18,09,58,10.10
2016,03,18,09,59,10.10
2016,03,18,10,00,10.10
2016,03,18,10,01,10.20
2016,03,18,10,02,10.20
2016,03,18,10,03,10.20
2016,03,18,10,04,10.20
2016,03,18,10,05,10.20
2016,03,18,10,06,10.20
2016,03,18,10,07,10.20
2016,03,18,10,08,10.20
2016,03,18,10,09,10.20
2016,03,18,10,10,10.20
2016,03,18,10,11,10.20
2016,03,18,10,12,10.20
2016,03,18,10,13,10.20
2016,03,18,10,14,10.20
2016,03,18,10,15,10.20
2016,03,18,10,16,10.20
2016,03,18,10,17,10.20
2016,03,18,10,18,10.20
2016,03,18,10,19,10.20
2016,03,18,10,20,10.20
2016,03,18,10,21,10.30
2016,03,18,10,22,10.30
2016,03,18,10,23,10.30
2016,03,18,10,24,10.30
2016,03,18,10,25,10.40
2016,03,18,10,26,10.40
2016,03,18,10,27,10.40
2016,03,18,10,28,10.40
2016,03,18,10,29,10.40
2016,03,18,10,30,10.50
2016,03,18,10,31,10.60
2016,03,18,10,32,10.60
2016,03,18,10,33,10.70
2016,03,18,10,34,10.70
2016,03,18,10,35,10.70
2016,03,18,10,36,10.80
2016,03,18,10,37,10.80
2016,03,18,10,38,10.80
2016,03,18,10,39,10.90
2016,03,18,10,40,10.90
2016,03,18,10,41,10.90
2016,03,18,10,42,10.90
2016,03,18,10,43,10.90
2016,03,18,10,44,10.90
2016,03,18,10,45,10.90
2016,03,18,10,46,10.90
2016,03,18,10,47,10.90
2016,03,18,10,48,10.90
2016,03,18,10,49,11.00
2016,03,18,10,50,11.10
2016,03,18,10,51,11.10
2016,03,18,10,52,11.10
2016,03,18,10,53,11.10
2016,03,18,10,54,11.20
2016,03,18,10,55,11.20
2016,03,18,10,56,11.20
2016,03,18,10,57,11.30
2016,03,18,10,58,11.30
2016,03,18,10,59,11.30
2016,03,18,11,00,11.30
2016,03,18,11,01,11.30
2016,03,18,11,02,11.40
2016,03,18,11,03,11.40
2016,03,18,11,04,11.50
2016,03,18,11,05,11.60
2016,03,18,11,06,11.60
2016,03,18,11,07,11.60
2016,03,18,11,08,11.60
2016,03,18,11,09,11.60
2016,03,18,11,10,11.60
2016,03,18,11,11,11.60
2016,03,18,11,12,11.60
2016,03,18,11,13,11.60
2016,03,18,11,14,11.50
2016,03,18,11,15,11.50
2016,03,18,11,16,11.50
2016,03,18,11,17,11.50
2016,03,18,11,18,11.40
2016,03,18,11,19,11.50
2016,03,18,11,20,11.60
2016,03,18,11,21,11.60
2016,03,18,11,22,11.60
2016,03,18,11,23,11.60
2016,03,18,11,24,11.60
2016,03,18,11,25,11.60
2016,03,18,11,26,11.70
2016,03,18,11,27,11.70
2016,03,18,11,28,11.80
2016,03,18,11,29,11.80
2016,03,18,11,30,11.70
2016,03,18,11,31,11.70
2016,03,18,11,32,11.60
2016,03,18,11,33,11.60
2016,03,18,11,34,11.60
2016,03,18,11,35,11.60
2016,03,18,11,36,11.60
2016,03,18,11,37,11.60
2016,03,18,11,38,11.60
2016,03,18,11,39,11.70
2016,03,18,11,40,11.70
2016,03,18,11,41,11.70
2016,03,18,11,42,11.70
2016,03,18,11,43,11.80
2016,03,18,11,44,11.80
2016,03,18,11,45,11.90
2016,03,18,11,46,11.90
2016,03,18,11,47,12.00
2016,03,18,11,48,12.00
2016,03,18,11,49,12.10
2016,03,18,11,50,12.10
2016,03,18,11,51,12.20
2016,03,18,11,52,12.10
2016,03,18,11,53,12.10
2016,03,18,11,54,12.10
2016,03,18,11,55,12.10
2016,03,18,11,56,12.20
2016,03,18,11,57,12.20
2016,03,18,11,58,12.20
2016,03,18,11,59,12.20
2016,03,18,12,00,12.20
2016,03,18,12,01,12.20
2016,03,18,12,02,12.30
2016,03,18,12,03,12.30
2016,03,18,12,04,12.30
2016,03,18,12,05,12.30
2016,03,18,12,06,12.30
2016,03,18,12,07,12.30
2016,03,18,12,08,12.40
2016,03,18,12,09,12.40
2016,03,18,12,10,12.40
2016,03,18,12,11,12.50
2016,03,18,12,12,12.50
2016,03,18,12,13,12.50
2016,03,18,12,14,12.40
2016,03,18,12,15,12.40
2016,03,18,12,16,12.50
2016,03,18,12,17,12.60
2016,03,18,12,18,12.70
2016,03,18,12,19,12.70
2016,03,18,12,20,12.80
2016,03,18,12,21,12.60
2016,03,18,12,22,12.60
2016,03,18,12,23,12.60
2016,03,18,12,24,12.50
2016,03,18,12,25,12.60
2016,03,18,12,26,12.60
2016,03,18,12,27,12.60
2016,03,18,12,28,12.70
2016,03,18,12,29,12.80
2016,03,18,12,30,12.70
2016,03,18,12,31,12.70
2016,03,18,12,32,12.70
2016,03,18,12,33,12.70
2016,03,18,12,34,12.80
2016,03,18,12,35,12.70
2016,03,18,12,36,12.60
2016,03,18,12,37,12.60
2016,03,18,12,38,12.70
2016,03,18,12,39,12.70
2016,03,18,12,40,12.70
2016,03,18,12,41,12.80
2016,03,18,12,42,12.80
2016,03,18,12,43,12.80
2016,03,18,12,44,12.80
2016,03,18,12,45,12.80
2016,03,18,12,46,12.80
2016,03,18,12,47,12.80
2016,03,18,12,48,12.90
2016,03,18,12,49,13.00
2016,03,18,12,50,13.10
2016,03,18,12,51,13.10
2016,03,18,12,52,13.00
2016,03,18,12,53,13.00
2016,03,18,12,54,13.00
2016,03,18,12,55,12.90
2016,03,18,12,56,12.90
2016,03,18,12,57,12.90
2016,03,18,12,58,12.90
2016,03,18,12,59,13.00
2016,03,18,13,00,13.00
2016,03,18,13,01,13.10
2016,03,18,13,02,13.10
2016,03,18,13,03,13.20
2016,03,18,13,04,13.20
2016,03,18,13,05,13.30
2016,03,18,13,06,13.30
2016,03,18,13,07,13.40
2016,03,18,13,08,13.50
2016,03,18,13,09,13.60
2016,03,18,13,10,13.50
2016,03,18,13,11,13.40
2016,03,18,13,12,13.30
2016,03,18,13,13,13.30
2016,03,18,13,14,13.30
2016,03,18,13,15,13.30
2016,03,18,13,16,13.30
2016,03,18,13,17,13.30
2016,03,18,13,18,13.30
2016,03,18,13,19,13.30
2016,03,18,13,20,13.30
2016,03,18,13,21,13.20
2016,03,18,13,22,13.20
2016,03,18,13,23,13.20
2016,03,18,13,24,13.30
2016,03,18,13,25,13.40
2016,03,18,13,26,13.40
2016,03,18,13,27,13.40
2016,03,18,13,28,13.50
2016,03,18,13,29,13.60
2016,03,18,13,30,13.70
2016,03,18,13,31,13.70
2016,03,18,13,32,13.70
2016,03,18,13,33,13.70
2016,03,18,13,34,13.60
2016,03,18,13,35,13.60
2016,03,18,13,36,13.60
2016,03,18,13,37,13.70
2016,03,18,13,38,13.70
2016,03,18,13,39,13.70
2016,03,18,13,40,13.70
2016,03,18,13,41,13.70
2016,03,18,13,42,13.70
2016,03,18,13,43,13.80
2016,03,18,13,44,13.80
2016,03,18,13,45,13.80
2016,03,18,13,46,13.70
2016,03,18,13,47,13.60
2016,03,18,13,48,13.60
2016,03,18,13,49,13.60
2016,03,18,13,50,13.60
2016,03,18,13,51,13.60
2016,03,18,13,52,13.70
2016,03,18,13,53,13.70
2016,03,18,13,54,13.80
2016,03,18,13,55,13.90
2016,03,18,13,56,13.90
2016,03,18,13,57,14.00
2016,03,18,13,58,14.00
2016,03,18,13,59,13.90
2016,03,18,14,00,13.90
2016,03,18,14,01,13.90
2016,03,18,14,02,13.90
2016,03,18,14,03,13.80
2016,03,18,14,04,13.80
2016,03,18,14,05,13.90
2016,03,18,14,06,13.90
2016,03,18,14,07,14.00
2016,03,18,14,08,14.00
2016,03,18,14,09,14.00
2016,03,18,14,10,14.00
2016,03,18,14,11,14.00
2016,03,18,14,12,13.90
2016,03,18,14,13,13.90
2016,03,18,14,14,13.90
2016,03,18,14,15,13.90
2016,03,18,14,16,13.90
2016,03,18,14,17,13.90
2016,03,18,14,18,13.90
2016,03,18,14,19,13.90
2016,03,18,14,20,13.90
2016,03,18,14,21,14.00
2016,03,18,14,22,14.10
2016,03,18,14,23,14.20
2016,03,18,14,24,14.20
2016,03,18,14,25,14.10
2016,03,18,14,26,14.00
2016,03,18,14,27,13.90
2016,03,18,14,28,13.80
2016,03,18,14,29,13.80
2016,03,18,14,30,13.80
2016,03,18,14,31,13.80
2016,03,18,14,32,13.80
2016,03,18,14,33,13.70
2016,03,18,14,34,13.70
2016,03,18,14,35,13.70
2016,03,18,14,36,13.70
2016,03,18,14,37,13.70
2016,03,18,14,38,13.70
2016,03,18,14,39,13.70
2016,03,18,14,40,13.70
2016,03,18,14,41,13.70
2016,03,18,14,42,13.70
2016,03,18,14,43,13.70
2016,03,18,14,44,13.70
2016,03,18,14,45,13.70
2016,03,18,14,46,13.70
2016,03,18,14,47,13.70
2016,03,18,14,48,13.70
2016,03,18,14,49,13.70
2016,03,18,14,50,13.80
2016,03,18,14,51,13.80
2016,03,18,14,52,13.80
2016,03,18,14,53,13.70
2016,03,18,14,54,13.70
2016,03,18,14,55,13.70
2016,03,18,14,56,13.60
2016,03,18,14,57,13.60
2016,03,18,14,58,13.50
2016,03,18,14,59,13.50
2016,03,18,15,00,13.40
2016,03,18,15,01,13.40
2016,03,18,15,02,13.40
2016,03,18,15,03,13.30
2016,03,18,15,04,13.30
2016,03,18,15,05,13.30
2016,03,18,15,06,13.40
2016,03,18,15,07,13.40
2016,03,18,15,08,13.40
2016,03,18,15,09,13.40
2016,03,18,15,10,13.40
2016,03,18,15,11,13.50
2016,03,18,15,12,13.50
2016,03,18,15,13,13.50
2016,03,18,15,14,13.50
2016,03,18,15,15,13.50
2016,03,18,15,16,13.50
2016,03,18,15,17,13.50
2016,03,18,15,18,13.60
2016,03,18,15,19,13.60
2016,03,18,15,20,13.70
2016,03,18,15,21,13.70
2016,03,18,15,22,13.70
2016,03,18,15,23,13.70
2016,03,18,15,24,13.70
2016,03,18,15,25,13.70
2016,03,18,15,26,13.70
2016,03,18,15,27,13.70
2016,03,18,15,28,13.70
2016,03,18,15,29,13.70
2016,03,18,15,30,13.70
2016,03,18,15,31,13.60
2016,03,18,15,32,13.60
2016,03,18,15,33,13.60
2016,03,18,15,34,13.60
2016,03,18,15,35,13.60
2016,03,18,15,36,13.60
2016,03,18,15,37,13.60
2016,03,18,15,38,13.60
2016,03,18,15,39,13.60
2016,03,18,15,40,13.60
2016,03,18,15,41,13.60
2016,03,18,15,42,13.70
2016,03,18,15,43,13.70
2016,03,18,15,44,13.70
2016,03,18,15,45,13.70
2016,03,18,15,46,13.80
2016,03,18,15,47,13.80
2016,03,18,15,48,13.90
2016,03,18,15,49,13.90
2016,03,18,15,50,13.90
2016,03,18,15,51,13.90
2016,03,18,15,52,13.80
2016,03,18,15,53,13.80
2016,03,18,15,54,13.80
2016,03,18,15,55,13.80
2016,03,18,15,56,13.80
2016,03,18,15,57,13.80
2016,03,18,15,58,13.80
2016,03,18,15,59,13.80
2016,03,18,16,00,13.90
2016,03,18,16,01,13.90
2016,03,18,16,02,13.80
2016,03,18,16,03,13.80
2016,03,18,16,04,13.80
2016,03,18,16,05,13.90
2016,03,18,16,06,13.90
2016,03,18,16,07,13.90
2016,03,18,16,08,13.90
2016,03,18,16,09,13.90
2016,03,18,16,10,13.80
2016,03,18,16,11,13.80
2016,03,18,16,12,13.80
2016,03,18,16,13,13.80
2016,03,18,16,14,13.80
2016,03,18,16,15,13.70
2016,03,18,16,16,13.70
2016,03,18,16,17,13.70
2016,03,18,16,18,13.60
2016,03,18,16,19,13.50
2016,03,18,16,20,13.40
2016,03,18,16,21,13.40
2016,03,18,16,22,13.40
2016,03,18,16,23,13.40
2016,03,18,16,24,13.40
2016,03,18,16,25,13.40
2016,03,18,16,26,13.40
2016,03,18,16,27,13.40
2016,03,18,16,28,13.40
2016,03,18,16,29,13.40
2016,03,18,16,30,13.40
2016,03,18,16,31,13.40
2016,03,18,16,32,13.30
2016,03,18,16,33,13.30
2016,03,18,16,34,13.30
2016,03,18,16,35,13.30
2016,03,18,16,36,13.30
2016,03,18,16,37,13.30
2016,03,18,16,38,13.30
2016,03,18,16,39,13.30
2016,03,18,16,40,13.30
2016,03,18,16,41,13.30
2016,03,18,16,42,13.30
2016,03,18,16,43,13.30
2016,03,18,16,44,13.30
2016,03,18,16,45,13.30
2016,03,18,16,46,13.30
2016,03,18,16,47,13.30
2016,03,18,16,48,13.20
2016,03,18,16,49,13.10
2016,03,18,16,50,13.00
2016,03,18,16,51,12.90
2016,03,18,16,52,12.90
2016,03,18,16,53,12.80
2016,03,18,16,54,12.80
2016,03,18,16,55,12.80
2016,03,18,16,56,12.80
2016,03,18,16,57,12.80
2016,03,18,16,58,12.80
2016,03,18,16,59,12.80
2016,03,18,17,00,12.90
2016,03,18,17,01,12.90
2016,03,18,17,02,13.00
2016,03,18,17,03,13.10
2016,03,18,17,04,13.10
2016,03,18,17,05,13.20
2016,03,18,17,06,13.20
2016,03,18,17,07,13.20
2016,03,18,17,08,13.30
2016,03,18,17,09,13.30
2016,03,18,17,10,13.30
2016,03,18,17,11,13.30
2016,03,18,17,12,13.20
2016,03,18,17,13,13.20
2016,03,18,17,14,13.20
2016,03,18,17,15,13.20
2016,03,18,17,16,13.20
2016,03,18,17,17,13.10
2016,03,18,17,18,13.10
2016,03,18,17,19,13.10
2016,03,18,17,20,13.00
2016,03,18,17,21,13.00
2016,03,18,17,22,12.90
2016,03,18,17,23,12.80
2016,03,18,17,24,12.80
2016,03,18,17,25,12.80
2016,03,18,17,26,12.80
2016,03,18,17,27,12.80
2016,03,18,17,28,12.80
2016,03,18,17,29,12.80
2016,03,18,17,30,12.80
2016,03,18,17,31,12.80
2016,03,18,17,32,12.80
2016,03,18,17,33,12.80
2016,03,18,17,34,12.80
2016,03,18,17,35,12.80
2016,03,18,17,36,12.80
2016,03,18,17,37,12.80
2016,03,18,17,38,12.80
2016,03,18,17,39,12.80
2016,03,18,17,40,12.80
2016,03,18,17,41,12.80
2016,03,18,17,42,12.90
2016,03,18,17,43,12.90
2016,03,18,17,44,12.90
2016,03,18,17,45,12.90
2016,03,18,17,46,12.90
2016,03,18,17,47,12.90
2016,03,18,17,48,12.90
2016,03,18,17,49,12.80
2016,03,18,17,50,12.80
2016,03,18,17,51,12.80
2016,03,18,17,52,12.80
2016,03,18,17,53,12.80
2016,03,18,17,54,12.80
2016,03,18,17,55,12.80
2016,03,18,17,56,12.80
2016,03,18,17,57,12.80
2016,03,18,17,58,12.80
2016,03,18,17,59,12.70
2016,03,18,18,00,12.70
2016,03,18,18,01,12.70
2016,03,18,18,02,12.60
2016,03,18,18,03,12.60
2016,03,18,18,04,12.60
2016,03,18,18,05,12.60
2016,03,18,18,06,12.60
2016,03,18,18,07,12.60
2016,03,18,18,08,12.60
2016,03,18,18,09,12.60
2016,03,18,18,10,12.60
2016,03,18,18,11,12.60
2016,03,18,18,12,12.60
2016,03,18,18,13,12.60
2016,03,18,18,14,12.60
2016,03,18,18,15,12.60
2016,03,18,18,16,12.60
2016,03,18,18,17,12.60
2016,03,18,18,18,12.50
2016,03,18,18,19,12.50
2016,03,18,18,20,12.50
2016,03,18,18,21,12.50
2016,03,18,18,22,12.40
2016,03,18,18,23,12.40
2016,03,18,18,24,12.40
2016,03,18,18,25,12.30
2016,03,18,18,26,12.30
2016,03,18,18,27,12.30
2016,03,18,18,28,12.30
2016,03,18,18,29,12.30
2016,03,18,18,30,12.30
2016,03,18,18,31,12.30
2016,03,18,18,32,12.30
2016,03,18,18,33,12.30
2016,03,18,18,34,12.30
2016,03,18,18,35,12.30
2016,03,18,18,36,12.30
2016,03,18,18,37,12.20
2016,03,18,18,38,12.20
2016,03,18,18,39,12.20
2016,03,18,18,40,12.10
2016,03,18,18,41,12.10
2016,03,18,18,42,12.10
2016,03,18,18,43,12.00
2016,03,18,18,44,12.00
2016,03,18,18,45,12.00
2016,03,18,18,46,11.90
2016,03,18,18,47,11.90
2016,03,18,18,48,11.90
2016,03,18,18,49,11.90
2016,03,18,18,50,11.80
2016,03,18,18,51,11.80
2016,03,18,18,52,11.80
2016,03,18,18,53,11.80
2016,03,18,18,54,11.80
2016,03,18,18,55,11.80
2016,03,18,18,56,11.70
2016,03,18,18,57,11.70
2016,03,18,18,58,11.70
2016,03,18,18,59,11.70
2016,03,18,19,00,11.60
2016,03,18,19,01,11.60
2016,03,18,19,02,11.60
2016,03,18,19,03,11.60
2016,03,18,19,04,11.60
2016,03,18,19,05,11.60
2016,03,18,19,06,11.60
2016,03,18,19,07,11.60
2016,03,18,19,08,11.60
2016,03,18,19,09,11.60
2016,03,18,19,10,11.60
2016,03,18,19,11,11.60
2016,03,18,19,12,11.60
2016,03,18,19,13,11.60
2016,03,18,19,14,11.60
2016,03,18,19,15,11.60
